FENGYUN 1C DEB

Satellite information

Favourite Embed

Satellite Type and Status

DEBRISIN ORBIT

Key statistics

Satellite FENGYUN 1C DEB at a glance.

Uptime

9495

Days in orbit

Revolutions

≈ 14.4

Per day

Orbit

SSO

Sun Synchronous Orbit

Inclination

98.9

Latest

Satellite identification and parameters

Extended collection of information and parameters for FENGYUN 1C DEB.

Object identification

Identified? True

Debris? True

Object name: FENGYUN 1C DEB

International designator: 1999-025BGT

Object number (NORAD): 31097

Object ID (CCSDS): 31097

Country: PEOPLES REPUBLIC OF CHINA (PRC)

Current information (Y/N): Y

RCS size: SMALL

Orbital parameters

Period: 99.826 minutes

Inclination: 98.8521 deg

SMA: 7128.372 km

Apoapsis: 762.266 km

Periapsis: 738.208 km

RAAN: 239.9575 deg

Eccentricy: 0.0016875

Argument of periapsis: 204.4817 deg

Mean anomaly: 212.0027 deg

Mean motion: 14.4250465 rev/day

Mean motion (dot): 0.00009595 rev/day2

B* drag term: 0.0029003 1/REarth

Two-line elements (TLE)

Creation date: May 7, 2025, 3:14 a.m.

Reference frame: TEME

Reference center: EARTH

Epoch: May 6, 2025, 7:10 a.m. UTC

TLE line 0: 0 FENGYUN 1C DEB

TLE line 1: 1 31097U 99025BGT 25126.29902689 .00009595 00000-0 29003-2 0 9990

TLE line 2: 2 31097 98.8521 239.9575 0016875 204.4817 212.0027 14.42504650938564

Live tracking on map

Real-time ground track for satellite FENGYUN 1C DEB.

In-orbit conjunctions

A list of the most updated potential collisions computed for object FENGYUN 1C DEB.

Target Orbit TCA Probability of collision Miss distance Type
SL-8 R/B LEO 2024-11-15 17:04:39 0.0002805767 803.0 (m) ROCKET BODY
PEGASUS DEB LEO 2024-11-12 21:47:43 0.0001795212 553.0 (m) DEBRIS
COSMOS 2251 DEB LEO 2024-11-12 15:02:05 0.0001298574 76.0 (m) DEBRIS
COSMOS 1420 LEO 2024-10-24 23:03:42 0.0001049212 435.0 (m) PAYLOAD
FENGYUN 1C DEB SSO 2024-09-24 17:27:14 0.0001466605 479.0 (m) DEBRIS

Associated space launch

Chinese polar orbiting meteorological satellite

FENGYUN 1C DEB was lifted into orbit during the mission ‘Long March 4B | Feng Yun 1C’, on board a Long March 4B space rocket.

The launch took place on May 10, 1999, 1:33 a.m. from Launch Complex 7.

For more information about the launch, click the button.

Launch to space Long March 4B | Feng Yun 1C
Long March 4B | Feng Yun 1C

Agency: N/A

Status: Launch Successful

Launch date: May 10, 1999, 1:33 a.m. UTC

Rocket: Long March 4B

Launch pad: Launch Complex 7

Location: Taiyuan Satellite Launch Center, People's Republic of China

...

Latest news about this satellite

There are no fresh news available about this satellite. Check back as we update our databases every day.


Newsletter sign-up

Weekly statistics, charts and insights to help you stay on top of the space industry.